Location: Mahannah Oil Field
(37.4664°N, 96.6003°W)
Time: 14:08:48
(UTC+00:00)

A-11 Canister half - Pass Details

Date: 29 January 2021
Orbit: 1525 x 1684 km, 47.3° (Epoch: 05 March)

Event Time Altitude Azimuth Distance (km) Brightness Sun altitude
Rises 03:11:48 0° 299° (WNW) 4,771 12.4 -40.7°
Reaches altitude 10° 03:15:04 10° 293° (WNW) 3,806 11.7 -41.4°
Maximum altitude 03:23:52 41° 227° (SW) 2,230 9.9 -43.1°
Enters shadow 03:24:47 40° 215° (SW) 2,258 9.8 -43.3°
